| time (UTC) | temp F | wind direction | speed knots | gust knots | rain 1hr in | rain 24hr in | rain mn in | humidity % | barometer mb |
| 20260504081552 | 50 | 334 | 5.2 | 12.2 | 0.00 | 0.00 | 0.00 | 65 | 998.3 |
| 20260504070140 | 55 | 242 | 15.6 | 20.0 | 0.00 | 0.00 | 0.00 | 60 | 995.7 |
| 20260504050020 | 57 | 240 | 15.6 | 21.7 | 0.00 | 0.00 | 0.00 | 51 | 997.6 |
| 20260504044521 | 57 | 261 | 17.4 | 21.7 | 0.00 | 0.00 | 0.00 | 49 | 997.7 |
| 20260504043022 | 58 | 244 | 17.4 | 22.6 | 0.00 | 0.00 | 0.00 | 48 | 997.9 |
| 20260504041511 | 58 | 234 | 17.4 | 23.5 | 0.00 | 0.00 | 0.00 | 48 | 998.1 |
| 20260504040010 | 58 | 239 | 17.4 | 22.6 | 0.00 | 0.00 | 0.00 | 47 | 998.2 |
| 20260504034507 | 58 | 236 | 13.0 | 18.2 | 0.00 | 0.00 | 0.00 | 48 | 998.6 |
| 20260504033007 | 56 | 248 | 10.4 | 14.8 | 0.00 | 0.00 | 0.00 | 52 | 998.9 |
| 20260504031503 | 53 | 264 | 1.7 | 6.1 | 0.00 | 0.00 | 0.00 | 59 | 999.1 |
| 20260504030122 | 53 | 149 | 1.7 | 3.5 | 0.00 | 0.00 | 0.00 | 58 | 999.4 |
| 20260504024602 | 54 | 174 | 1.7 | 5.2 | 0.00 | 0.00 | 0.00 | 56 | 999.6 |
| 20260504023100 | 54 | 241 | 1.7 | 4.3 | 0.00 | 0.00 | 0.00 | 56 | 999.6 |
| 20260504021558 | 55 | 198 | 1.7 | 3.5 | 0.00 | 0.00 | 0.00 | 53 | 999.7 |
| 20260504020106 | 57 | 194 | 1.7 | 3.5 | 0.00 | 0.00 | 0.00 | 50 | 999.9 |
| 20260504014558 | 60 | 138 | 0.9 | 5.2 | 0.00 | 0.00 | 0.00 | 45 | 1000.1 |
| 20260504013054 | 62 | 246 | 3.5 | 8.7 | 0.00 | 0.00 | 0.00 | 40 | 1000.4 |
| 20260504011548 | 64 | 222 | 7.0 | 11.3 | 0.00 | 0.00 | 0.00 | 38 | 1000.7 |
| 20260504010044 | 66 | 247 | 8.7 | 13.9 | 0.00 | 0.00 | 0.00 | 35 | 1001.1 |
| 20260504004542 | 67 | 239 | 9.6 | 13.9 | 0.00 | 0.00 | 0.00 | 32 | 1001.4 |
| 20260504003039 | 68 | 238 | 11.3 | 15.6 | 0.00 | 0.00 | 0.00 | 32 | 1001.8 |
| 20260504001543 | 69 | 259 | 11.3 | 20.0 | 0.00 | 0.00 | 0.00 | 28 | 1002.0 |
| 20260504000033 | 70 | 274 | 13.0 | 20.0 | 0.00 | 0.00 | 0.00 | 26 | 1002.5 |
| 20260503234532 | 70 | 276 | 15.6 | 20.9 | 0.00 | 0.00 | 0.00 | 25 | 1002.7 |
| 20260503233036 | 71 | 266 | 13.9 | 20.9 | 0.00 | 0.00 | 0.00 | 24 | 1002.8 |
| 20260503231529 | 71 | 259 | 13.9 | 20.0 | 0.00 | 0.00 | 0.00 | 26 | 1002.9 |
| 20260503230027 | 71 | 246 | 13.0 | 22.6 | 0.00 | 0.00 | 0.00 | 23 | 1003.2 |
| 20260503224525 | 71 | 271 | 18.2 | 22.6 | 0.00 | 0.00 | 0.00 | 24 | 1003.4 |
| 20260503223023 | 70 | 270 | 17.4 | 24.3 | 0.00 | 0.00 | 0.00 | 24 | 1003.5 |
| 20260503221521 | 70 | 265 | 20.0 | 26.1 | 0.00 | 0.00 | 0.00 | 25 | 1003.8 |
| 20260503220019 | 70 | 255 | 17.4 | 26.1 | 0.00 | 0.00 | 0.00 | 24 | 1004.1 |
| 20260503214516 | 70 | 240 | 15.6 | 21.7 | 0.00 | 0.00 | 0.00 | 24 | 1004.3 |
| 20260503213015 | 70 | 269 | 11.3 | 18.2 | 0.00 | 0.00 | 0.00 | 26 | 1004.7 |
| 20260503211513 | 69 | 257 | 11.3 | 26.1 | 0.00 | 0.00 | 0.00 | 24 | 1004.9 |
| 20260503210015 | 70 | 249 | 10.4 | 14.8 | 0.00 | 0.00 | 0.00 | 26 | 1005.3 |
| 20260503204506 | 69 | 252 | 11.3 | 15.6 | 0.00 | 0.00 | 0.00 | 27 | 1005.6 |
| 20260503203003 | 69 | 255 | 13.0 | 20.9 | 0.00 | 0.00 | 0.00 | 28 | 1005.8 |
| 20260503201502 | 70 | 278 | 5.2 | 17.4 | 0.00 | 0.00 | 0.00 | 29 | 1006.1 |
| 20260503200059 | 68 | 271 | 7.8 | 20.0 | 0.00 | 0.00 | 0.00 | 27 | 1006.4 |
| 20260503194554 | 68 | 288 | 13.9 | 20.9 | 0.00 | 0.00 | 0.00 | 29 | 1006.8 |
| 20260503193107 | 67 | 248 | 7.0 | 13.9 | 0.00 | 0.00 | 0.00 | 29 | 1006.9 |
| 20260503191553 | 67 | 294 | 10.4 | 13.9 | 0.00 | 0.00 | 0.00 | 28 | 1007.3 |
| 20260503184547 | 67 | 259 | 7.0 | 14.8 | 0.00 | 0.00 | 0.00 | 29 | 1007.9 |
| 20260503183057 | 68 | 48 | 2.6 | 8.7 | 0.00 | 0.00 | 0.00 | 33 | 1007.9 |
| 20260503181543 | 67 | 341 | 4.3 | 11.3 | 0.00 | 0.00 | 0.00 | 32 | 1008.5 |
| 20260503180052 | 66 | 284 | 2.6 | 9.6 | 0.00 | 0.00 | 0.00 | 33 | 1008.6 |
| 20260503174541 | 66 | 322 | 5.2 | 12.2 | 0.00 | 0.00 | 0.00 | 34 | 1009.0 |
| 20260503173058 | 65 | 271 | 2.6 | 9.6 | 0.00 | 0.00 | 0.00 | 34 | 1009.2 |
| 20260503171543 | 66 | 304 | 2.6 | 9.6 | 0.00 | 0.00 | 0.00 | 34 | 1009.4 |
| 20260503140113 | 51 | 300 | 0.9 | 7.0 | 0.00 | 0.00 | 0.00 | 67 | 1010.6 |